Olivia, MN

7:06 AM CDT on August 27, 2016 (GMT -0500)
Olivia Regional

Weather History for KOVL - January, 2014

Change the Weather History Date:

Friday, January 24, 2014

  Actual Average (KRWF) Record (KRWF)
Temperature  
Mean Temperature 22 °F -  
Max Temperature 35 °F 25 °F 68 °F (1981)
Min Temperature 10 °F 7 °F -30 °F (1936)
Degree Days  
Heating Degree Days 42    
Moisture  
Dew Point 22 °F    
Average Humidity 79    
Maximum Humidity 93    
Minimum Humidity 57    
Precipitation  
Precipitation 0.00 in - - ()
Sea Level Pressure  
Sea Level Pressure 29.69 in    
Wind  
Wind Speed 17 mph (West)    
Max Wind Speed 23 mph    
Max Gust Speed 30 mph    
Visibility 9 miles    
Events Rain , Snow    
Averages and records for this station are not official NWS values.
T = Trace of Precipitation, MM = Missing Value Source: NWS Daily Summary

Daily Weather History Graph

Daily Weather History Graph

Search for Another Location

Airport or City:

Trip Planner

Search our weather history database for the weather conditions in past years. The results will help you decide how hot, cold, wet, or windy it might be!

Date:

Astronomy

Jan. 24, 2014 Rise Set
Actual Time 7:47 AM CST 5:17 PM CST
Civil Twilight 7:15 AM CST 5:49 PM CST
Nautical Twilight 6:40 AM CST 6:24 PM CST
Astronomical Twilight 6:05 AM CST 6:59 PM CST
Moon 1:12 AM CST (1/24) 11:39 AM CST (1/24)
Length of Visible Light 10h 33m
Length of Day
9h 29m
Last Quarter, 44% of the Moon is Illuminated
Jan 24
Last Quarter
Jan 30
New
Feb 6
First Quarter
Feb 14
Full
Feb 22
Last Quarter

Hourly Weather History & Observations

Time (CST) Temp. Windchill Dew Point Humidity Pressure Visibility Wind Dir Wind Speed Gust Speed Precip Events Conditions
12:13 AM 10.4 °F -7.2 °F -0.4 °F 62% 30.06 in 10.0 mi SSW 17.3 mph - N/A   Clear
12:33 AM 12.2 °F -3.7 °F -0.4 °F 57% 30.04 in 10.0 mi SSW 15.0 mph 23.0 mph N/A   Clear
12:54 AM 12.2 °F -4.8 °F 1.4 °F 62% 30.01 in 10.0 mi SSW 17.3 mph - N/A   Clear
1:13 AM 14.0 °F -2.5 °F 1.4 °F 57% 29.99 in 10.0 mi SSW 17.3 mph - N/A   Clear
1:34 AM 15.8 °F -2.3 °F 3.2 °F 58% 29.96 in 10.0 mi SW 23.0 mph 29.9 mph N/A   Clear
1:53 AM 15.8 °F -1.5 °F 3.2 °F 58% 29.94 in 10.0 mi SW 20.7 mph 27.6 mph N/A   Clear
2:13 AM 15.8 °F -0.6 °F 3.2 °F 58% 29.93 in 10.0 mi SW 18.4 mph - N/A   Clear
2:34 AM 17.6 °F 1.3 °F 5.0 °F 58% 29.90 in 10.0 mi SW 19.6 mph - N/A   Clear
2:53 AM 17.6 °F 1.7 °F 6.8 °F 63% 29.88 in 10.0 mi SW 18.4 mph 25.3 mph N/A   Clear
3:14 AM 19.4 °F 2.8 °F 8.6 °F 63% 29.86 in 10.0 mi SW 21.9 mph 25.3 mph N/A   Clear
3:33 AM 21.2 °F 6.4 °F 10.4 °F 63% 29.86 in 10.0 mi SW 18.4 mph 25.3 mph N/A   Mostly Cloudy
3:54 AM 21.2 °F 7.3 °F 10.4 °F 63% 29.86 in 10.0 mi WSW 16.1 mph 21.9 mph N/A   Mostly Cloudy
4:13 AM 21.2 °F 6.4 °F 10.4 °F 63% 29.85 in 10.0 mi WSW 18.4 mph - N/A   Mostly Cloudy
4:34 AM 21.2 °F 6.8 °F 10.4 °F 63% 29.83 in 10.0 mi SW 17.3 mph - N/A   Scattered Clouds
4:54 AM 21.2 °F 6.4 °F 12.2 °F 68% 29.82 in 10.0 mi SW 18.4 mph - N/A   Mostly Cloudy
5:13 AM 21.2 °F 7.3 °F 12.2 °F 68% 29.81 in 10.0 mi SW 16.1 mph - N/A   Overcast
5:34 AM 21.2 °F 7.3 °F 12.2 °F 68% 29.79 in 10.0 mi SW 16.1 mph - N/A   Overcast
5:53 AM 21.2 °F 7.8 °F 12.2 °F 68% 29.78 in 10.0 mi SW 15.0 mph - N/A   Overcast
6:13 AM 23.0 °F 10.1 °F 14.0 °F 68% 29.78 in 10.0 mi WSW 15.0 mph - N/A   Overcast
6:33 AM 21.2 °F 9.5 °F 14.0 °F 74% 29.77 in 10.0 mi SW 11.5 mph - N/A   Scattered Clouds
6:53 AM 21.2 °F 10.1 °F 14.0 °F 74% 29.76 in 10.0 mi WSW 10.4 mph - N/A   Scattered Clouds
7:14 AM 23.0 °F 11.7 °F 15.8 °F 74% 29.76 in 10.0 mi WSW 11.5 mph - N/A   Mostly Cloudy
7:33 AM 23.0 °F 11.7 °F 15.8 °F 74% 29.74 in 10.0 mi WSW 11.5 mph - N/A   Overcast
7:54 AM 26.6 °F 15.2 °F 17.6 °F 69% 29.74 in 10.0 mi West 13.8 mph - N/A   Overcast
8:13 AM 26.6 °F 15.7 °F 19.4 °F 74% 29.74 in 10.0 mi West 12.7 mph - N/A   Overcast
8:34 AM 28.4 °F 18.0 °F 21.2 °F 74% 29.73 in 10.0 mi West 12.7 mph - N/A   Overcast
8:53 AM 28.4 °F 18.0 °F 21.2 °F 74% 29.72 in 10.0 mi West 12.7 mph - N/A   Overcast
9:14 AM 30.2 °F 19.8 °F 23.0 °F 75% 29.72 in 10.0 mi West 13.8 mph - N/A   Overcast
9:33 AM 30.2 °F 19.3 °F 23.0 °F 75% 29.72 in 10.0 mi West 15.0 mph - N/A   Overcast
9:53 AM 30.2 °F 18.9 °F 23.0 °F 75% 29.71 in 10.0 mi West 16.1 mph - N/A   Overcast
10:14 AM 30.2 °F 18.9 °F 24.8 °F 80% 29.70 in 10.0 mi West 16.1 mph - N/A   Mostly Cloudy
10:33 AM 32.0 °F 20.8 °F 26.6 °F 80% 29.69 in 10.0 mi West 17.3 mph - N/A   Scattered Clouds
10:54 AM 30.2 °F 18.5 °F 24.8 °F 80% 29.69 in 10.0 mi West 17.3 mph 23.0 mph N/A   Clear
11:13 AM 32.0 °F 20.5 °F 26.6 °F 80% 29.68 in 10.0 mi West 18.4 mph 21.9 mph N/A   Clear
11:34 AM 32.0 °F 20.5 °F 28.4 °F 87% 29.67 in 10.0 mi West 18.4 mph - N/A   Clear
11:53 AM 32.0 °F 21.2 °F 28.4 °F 87% 29.66 in 10.0 mi West 16.1 mph - N/A   Clear
12:13 PM 32.0 °F 20.1 °F 28.4 °F 87% 29.65 in 10.0 mi West 19.6 mph 23.0 mph N/A   Clear
12:33 PM 32.0 °F 20.5 °F 28.4 °F 87% 29.63 in 10.0 mi West 18.4 mph - N/A   Clear
12:53 PM 33.8 °F 22.8 °F 30.2 °F 87% 29.61 in 10.0 mi West 18.4 mph 23.0 mph N/A   Scattered Clouds
1:13 PM 33.8 °F 22.8 °F 30.2 °F 87% 29.60 in 10.0 mi West 18.4 mph - N/A   Scattered Clouds
1:33 PM 33.8 °F 23.9 °F 30.2 °F 87% 29.58 in 10.0 mi West 15.0 mph 21.9 mph N/A   Scattered Clouds
1:54 PM 33.8 °F 23.2 °F 30.2 °F 87% 29.57 in 10.0 mi West 17.3 mph - N/A   Clear
2:13 PM 33.8 °F 23.2 °F 30.2 °F 87% 29.56 in 10.0 mi West 17.3 mph - N/A   Scattered Clouds
2:33 PM 33.8 °F 22.8 °F 30.2 °F 87% 29.55 in 10.0 mi West 18.4 mph 25.3 mph N/A   Scattered Clouds
2:54 PM 33.8 °F 23.5 °F 30.2 °F 87% 29.53 in 10.0 mi West 16.1 mph 21.9 mph N/A   Mostly Cloudy
3:13 PM 33.8 °F 23.5 °F 30.2 °F 87% 29.53 in 10.0 mi West 16.1 mph - N/A   Mostly Cloudy
3:33 PM 35.6 °F 26.2 °F 32.0 °F 87% 29.54 in 10.0 mi West 15.0 mph - N/A   Overcast
3:54 PM 33.8 °F 22.8 °F 32.0 °F 93% 29.52 in 4.0 mi West 18.4 mph - N/A Snow Light Snow
4:14 PM 33.8 °F 23.5 °F 32.0 °F 93% 29.52 in 4.0 mi West 16.1 mph - N/A Snow Light Snow
4:33 PM 33.8 °F 23.9 °F 32.0 °F 93% 29.52 in 4.0 mi West 15.0 mph - N/A Snow Light Snow
4:53 PM 33.8 °F 23.9 °F 32.0 °F 93% 29.52 in 4.0 mi West 15.0 mph - N/A Snow Light Snow
5:14 PM 33.8 °F 23.2 °F 32.0 °F 93% 29.52 in 4.0 mi West 17.3 mph - N/A Rain Light Rain
5:34 PM 33.8 °F 23.5 °F 32.0 °F 93% 29.52 in 3.0 mi WNW 16.1 mph - N/A   Light Drizzle
5:54 PM 33.8 °F 23.2 °F 32.0 °F 93% 29.52 in 5.0 mi WNW 17.3 mph 21.9 mph N/A   Overcast
6:13 PM 33.8 °F 23.5 °F 32.0 °F 93% 29.52 in 7.0 mi WNW 16.1 mph - N/A   Overcast
6:33 PM 33.8 °F 24.3 °F 32.0 °F 93% 29.53 in 10.0 mi WNW 13.8 mph 21.9 mph N/A   Overcast
6:53 PM 33.8 °F 23.5 °F 32.0 °F 93% 29.54 in 7.0 mi NW 16.1 mph 24.2 mph N/A   Overcast
7:13 PM 33.8 °F 22.2 °F 32.0 °F 93% 29.55 in 7.0 mi NW 20.7 mph 27.6 mph N/A Rain Light Rain
7:34 PM 33.8 °F 22.8 °F 32.0 °F 93% 29.55 in 10.0 mi NW 18.4 mph 23.0 mph N/A   Scattered Clouds
7:54 PM 33.8 °F 23.2 °F 32.0 °F 93% 29.56 in 10.0 mi NNW 17.3 mph 26.5 mph N/A   Clear
8:13 PM 33.8 °F 23.5 °F 30.2 °F 87% 29.57 in 10.0 mi NNW 16.1 mph 25.3 mph N/A   Scattered Clouds
8:33 PM 33.8 °F 23.9 °F 30.2 °F 87% 29.57 in 10.0 mi NW 15.0 mph 24.2 mph N/A   Scattered Clouds
8:54 PM 33.8 °F 24.3 °F 30.2 °F 87% 29.58 in 10.0 mi NW 13.8 mph - N/A   Mostly Cloudy
9:13 PM 33.8 °F 23.5 °F 30.2 °F 87% 29.58 in 10.0 mi NW 16.1 mph - N/A   Mostly Cloudy
9:33 PM 33.8 °F 23.2 °F 30.2 °F 87% 29.58 in 10.0 mi NW 17.3 mph 21.9 mph N/A   Scattered Clouds
9:53 PM 32.0 °F 21.2 °F 28.4 °F 87% 29.59 in 10.0 mi NW 16.1 mph 23.0 mph N/A   Mostly Cloudy
10:13 PM 32.0 °F 20.5 °F 28.4 °F 87% 29.60 in 10.0 mi NW 18.4 mph 26.5 mph N/A   Mostly Cloudy
10:33 PM 32.0 °F 19.5 °F 28.4 °F 87% 29.61 in 10.0 mi NW 21.9 mph 28.8 mph N/A Rain Light Rain
10:53 PM 32.0 °F 20.5 °F 26.6 °F 80% 29.63 in 7.0 mi NNW 18.4 mph 28.8 mph N/A Snow Light Snow
11:13 PM 30.2 °F 17.1 °F 26.6 °F 86% 29.64 in 2.5 mi NW 21.9 mph 28.8 mph N/A Snow Light Snow
11:33 PM 28.4 °F 14.4 °F 23.0 °F 80% 29.65 in 10.0 mi NW 23.0 mph - N/A   Mostly Cloudy
11:53 PM 28.4 °F 14.7 °F 21.2 °F 74% 29.67 in 10.0 mi NW 21.9 mph - N/A   Scattered Clouds